GSAT0206 (PRN E30)

Last updated on Oct. 30, 2020, 5:57 a.m. UTC

1 40890U 15045B   20303.30372489 -.00000029  00000-0  00000-0 0  9992
2 40890  56.0505 278.4101 0003314 318.0387  41.9063  1.70474921 31976
UTC
Height (km)
Latitude
Longitude
Inclination
Orbital Period
UTC large
Height (km)
Speed (km/s)
/
Latitude / Longitude
Inclination (degrees)
Orbital Period (minutes)
Azimuth
Elevation
Range (km)
Doppler Factor
iOS Compass Heading
iOS Angle

Next 30 passes for location: Hong Kong

Rise time Rise Azimuth (degrees) Set time Set Azimuth (degrees) Duration Max altitude (degrees)

No matching passes for this satellites